Total_Precipitation_Accumulation
0.05 0.07 0.09 0.11 0.12 0.10 0.11 0.16 0.22 0.26 0.23 0.28 0.45 0.73 1.04 1.20 1.50 1.41 1.41 1.56 1.68 1.80 2.11 2.55 2.85 3.37 3.96 4.40 4.82 5.02 5.10 4.98 4.82 4.46 4.16 3.91 3.66 3.44 3.19 3.00 2.91 2.84 2.78 2.99
0.07 0.10 0.08 0.09 0.09 0.10 0.12 0.17 0.21 0.26 0.26 0.35 0.54 0.79 1.13 1.20 1.28 1.29 1.19 1.25 1.43 1.77 2.04 2.56 2.88 3.09 3.50 4.02 4.50 4.83 5.02 4.91 4.53 4.18 4.03 3.95 3.91 3.50 3.22 3.20 3.36 3.18 3.18 3.21
0.10 0.09 0.08 0.08 0.08 0.11 0.16 0.18 0.21 0.23 0.26 0.46 0.62 1.12 1.38 1.26 1.27 1.25 1.18 1.25 1.42 1.86 2.32 2.61 2.81 2.95 3.19 3.59 3.90 4.01 4.20 4.17 4.02 4.06 4.09 4.06 4.10 3.69 3.63 3.64 3.66 3.44 3.44 3.46
0.08 0.06 0.07 0.10 0.11 0.14 0.19 0.16 0.16 0.20 0.30 0.57 0.68 1.40 1.80 1.52 1.43 1.51 1.47 1.42 1.68 1.97 2.02 2.22 2.50 2.77 2.94 3.18 3.50 3.71 3.78 3.74 3.67 3.79 3.86 3.77 3.59 3.48 3.65 3.93 3.86 3.59 3.39 3.27
0.07 0.07 0.08 0.11 0.11 0.12 0.15 0.16 0.19 0.25 0.34 0.55 0.72 1.13 1.68 1.61 1.77 1.73 1.56 1.61 1.88 1.86 1.76 1.87 2.07 2.39 2.51 2.84 3.12 3.32 3.58 3.67 3.62 3.71 3.70 3.74 3.57 3.56 3.62 3.64 3.69 3.50 3.32 3.01
0.07 0.08 0.08 0.09 0.10 0.12 0.15 0.20 0.30 0.39 0.56 0.96 0.78 0.91 1.49 1.58 1.51 1.51 1.48 1.43 1.61 1.57 1.54 1.76 1.93 2.23 2.38 2.51 2.65 2.76 2.98 3.25 3.43 3.47 3.45 3.50 3.46 3.45 3.40 3.39 3.29 3.09 2.94 2.75
0.12 0.14 0.12 0.10 0.12 0.14 0.16 0.30 0.74 1.12 1.31 1.30 0.70 0.83 1.35 1.26 1.18 1.19 1.30 1.33 1.34 1.29 1.28 1.50 1.66 1.84 2.04 2.15 2.27 2.42 2.71 3.05 3.14 3.10 3.05 3.17 3.26 3.27 3.20 3.19 3.05 2.84 2.61 2.40
0.20 0.27 0.17 0.12 0.13 0.16 0.19 0.26 0.67 0.99 1.09 1.07 0.88 1.28 1.68 1.27 1.09 1.12 1.22 1.21 1.16 1.08 1.04 1.20 1.47 1.77 1.93 1.91 1.98 2.14 2.45 2.72 2.76 2.69 2.83 3.10 3.18 3.21 3.13 3.17 2.87 2.61 2.41 2.36
0.16 0.16 0.13 0.13 0.16 0.17 0.19 0.21 0.31 0.51 0.60 0.88 1.14 1.43 1.43 0.98 0.91 0.97 1.03 1.07 1.18 1.11 1.04 1.13 1.23 1.43 1.56 1.62 1.69 1.84 2.27 2.55 2.64 2.72 2.85 2.99 3.12 3.08 3.04 2.95 2.68 2.42 2.44 2.40
0.13 0.12 0.14 0.13 0.14 0.17 0.18 0.22 0.28 0.40 0.66 1.01 1.22 1.50 1.61 1.14 0.92 0.70 0.68 0.79 0.85 0.86 0.87 0.95 1.00 1.12 1.22 1.40 1.67 1.86 2.02 2.35 2.46 2.57 2.74 2.77 3.01 2.91 2.75 2.72 2.50 2.26 2.18 2.28
0.11 0.12 0.15 0.15 0.16 0.19 0.21 0.23 0.27 0.32 0.45 0.77 1.29 1.48 1.12 0.92 0.77 0.74 0.72 0.81 0.85 0.81 0.77 0.82 0.96 1.09 1.19 1.33 1.55 1.69 1.74 1.98 2.18 2.31 2.51 2.51 2.51 2.58 2.67 2.53 2.27 2.19 2.24 2.35
0.08 0.10 0.16 0.21 0.26 0.23 0.21 0.19 0.24 0.33 0.34 0.45 0.80 1.13 0.80 0.79 0.81 0.80 0.80 0.87 0.95 0.92 0.84 0.89 1.05 1.18 1.26 1.40 1.45 1.50 1.59 1.80 2.01 2.21 2.43 2.50 2.49 2.55 2.60 2.46 2.27 2.27 2.35 2.36
0.10 0.12 0.24 0.42 0.52 0.36 0.23 0.18 0.21 0.23 0.23 0.38 0.69 0.99 0.68 0.62 0.78 0.97 1.26 1.42 1.18 1.01 0.93 0.98 1.09 1.13 1.13 1.24 1.39 1.43 1.45 1.67 1.90 2.14 2.45 2.62 2.66 2.64 2.57 2.39 2.18 2.10 2.05 2.07
0.14 0.13 0.22 0.49 0.58 0.47 0.33 0.23 0.20 0.19 0.24 0.35 0.47 0.78 0.72 0.74 0.83 1.03 1.19 1.11 1.07 1.00 0.96 1.03 1.04 1.16 1.16 1.19 1.33 1.36 1.43 1.54 1.82 2.07 2.28 2.42 2.32 2.26 2.27 2.14 1.96 1.86 1.85 1.87
0.19 0.16 0.15 0.21 0.33 0.35 0.32 0.29 0.25 0.21 0.20 0.35 0.44 0.62 0.73 0.78 0.88 1.10 1.24 1.19 1.08 0.92 0.86 0.88 0.89 0.96 1.01 1.15 1.30 1.24 1.28 1.35 1.52 1.73 1.83 1.99 1.98 1.94 1.89 1.93 1.97 1.96 2.00 1.94
0.25 0.27 0.23 0.24 0.28 0.33 0.36 0.34 0.29 0.24 0.21 0.27 0.41 0.65 0.87 0.87 0.89 1.05 1.07 0.94 0.80 0.72 0.61 0.58 0.77 0.86 0.82 0.86 0.98 0.96 1.01 1.17 1.35 1.45 1.57 1.82 1.94 1.95 1.92 1.98 2.12 2.14 2.09 2.05
0.31 0.37 0.38 0.37 0.34 0.34 0.44 0.43 0.37 0.30 0.29 0.30 0.45 0.69 0.96 0.84 0.74 0.85 0.91 0.86 0.79 0.79 0.61 0.56 0.64 0.79 0.79 0.80 0.83 0.95 1.08 1.22 1.33 1.48 1.63 1.84 1.96 2.05 2.09 2.07 2.17 2.11 2.12 2.18
0.47 0.52 0.46 0.44 0.55 0.65 0.49 0.40 0.41 0.41 0.43 0.39 0.54 0.59 0.75 0.74 0.77 0.89 0.89 0.88 0.74 0.73 0.68 0.64 0.63 0.63 0.67 0.75 0.82 0.98 1.26 1.51 1.57 1.72 1.92 2.04 2.18 2.14 2.12 2.12 2.15 2.24 2.32 2.36
0.41 0.61 0.61 0.60 0.73 0.65 0.56 0.41 0.48 0.54 0.72 0.74 0.84 0.82 0.77 0.73 0.85 0.95 0.81 0.74 0.76 0.67 0.63 0.68 0.73 0.74 0.80 0.86 0.90 1.07 1.30 1.62 1.81 1.87 1.97 2.13 2.24 2.28 2.29 2.29 2.27 2.39 2.52 2.48
0.45 0.62 0.77 0.73 0.90 0.88 0.74 0.56 0.57 0.73 1.28 1.12 1.08 1.07 0.94 0.85 1.03 1.14 1.04 0.96 0.89 0.80 0.74 0.75 0.78 0.91 1.10 1.17 1.18 1.30 1.43 1.56 1.77 1.85 1.96 2.14 2.37 2.43 2.44 2.60 2.70 2.68 2.65 2.52
0.79 0.85 0.90 0.89 0.96 1.06 0.88 0.77 0.80 1.34 1.71 1.36 1.21 1.16 1.11 1.21 1.26 1.20 1.05 1.05 0.97 0.86 0.86 0.84 0.87 1.04 1.29 1.42 1.45 1.55 1.70 1.79 1.81 1.88 2.02 2.21 2.39 2.49 2.57 2.76 2.86 2.85 2.79 2.79
1.00 1.07 1.07 1.08 1.29 1.51 1.03 0.98 1.40 1.71 1.44 1.47 1.47 1.42 1.31 1.28 1.23 1.17 1.08 1.10 1.03 0.94 0.98 1.01 1.06 1.24 1.48 1.65 1.63 1.71 1.80 1.81 1.84 1.85 1.99 2.13 2.29 2.30 2.38 2.67 2.78 2.90 2.95 2.89
1.11 1.22 1.30 1.45 1.60 1.46 1.22 1.29 1.44 1.56 1.72 1.64 1.56 1.63 1.43 1.40 1.28 1.17 1.13 1.10 1.06 0.99 1.02 1.08 1.14 1.34 1.61 1.80 1.83 1.91 1.83 1.91 1.95 1.97 2.09 2.22 2.30 2.34 2.44 2.57 2.62 2.72 2.80 2.76
1.37 1.24 1.44 1.72 1.74 1.62 1.51 1.38 1.20 1.32 1.44 1.43 1.44 1.48 1.46 1.39 1.28 1.18 1.10 1.04 1.01 1.03 0.99 1.07 1.19 1.28 1.40 1.61 1.83 1.95 1.98 2.03 2.03 2.06 2.12 2.21 2.32 2.31 2.40 2.53 2.64 2.74 2.82 2.91
1.62 1.43 1.65 1.95 1.83 1.70 1.68 1.53 1.40 1.47 1.53 1.45 1.38 1.37 1.39 1.36 1.28 1.13 1.10 1.08 1.05 1.05 1.01 1.07 1.19 1.25 1.32 1.40 1.53 1.60 1.73 1.85 1.93 2.02 2.08 2.11 2.15 2.24 2.36 2.43 2.55 2.53 2.60 2.64
1.69 1.70 1.96 2.29 1.98 1.82 1.80 1.60 1.44 1.50 1.49 1.58 1.67 1.64 1.41 1.30 1.38 1.30 1.18 1.10 1.10 1.12 1.12 1.13 1.20 1.22 1.24 1.34 1.52 1.60 1.69 1.82 1.98 2.10 2.13 2.09 2.03 2.10 2.16 2.23 2.26 2.29 2.18 2.17